Regional Weather Roundup
Issued by NWS

Home | Current Version | Previous Version | Text Only | Print | Product List | Glossary Off
Versions: 1 2 3 4 5 6 7 8 9 10 11 12 13 14 15 16 17 18 19 20 21 22 23 24 25 26 27

000
ASUS45 KCYS 240310
RWRWY

WYOMING REGIONAL WEATHER ROUNDUP
NATIONAL WEATHER SERVICE CHEYENNE WY
900 PM MDT MON APR 23 2018

NOTE:  "FAIR" INDICATES FEW OR NO CLOUDS BELOW 12,000 FEET
WITH NO SIGNIFICANT WEATHER AND/OR OBSTRUCTIONS TO VISIBILITY.

WYZ001-240400-
YELLOWSTONE NATIONAL PARK

CITY           SKY/WX    TMP DP  RH WIND       PRES   REMARKS
LK YELLOWSTONE   N/A     26  20  77 CALM      30.36R
W YELLOWSTONE  NOT AVBL

$$
WYZ002>013-054>058-071-098>099-240400-
NORTHERN WYOMING

CITY           SKY/WX    TMP DP  RH WIND       PRES   REMARKS
JACKSON        LGT RAIN  38  28  67 N17       30.28R WCI  28
CODY           CLOUDY    34  28  79 N12       30.43R WCI  25
GREYBULL       MOCLDY    37  31  78 NW23      30.36R WCI  26
WORLAND        FAIR      36  31  82 NW16      30.37R WCI  26
SHERIDAN       FLURRIES  35  32  88 NW14      30.43R WCI  26
BUFFALO        CLOUDY    33  29  85 N20       30.38R WCI  21
GILLETTE       CLOUDY    33  31  92 NW21      30.34R FOG     WCI  21
HULETT         MIX PCPN  34  32  93 N13G20    30.32R WCI  25
NEWCASTLE      FAIR      32  28  86 N22G35    30.24S WCI  19

$$
WYZ014>020-022>026-101>103-240400-
CENTRAL WYOMING

CITY           SKY/WX    TMP DP  RH WIND       PRES   REMARKS
BIG PINEY      FAIR      37  22  54 N15       30.24R WCI  28
PINEDALE       FAIR      36  27  69 NW8       30.25R WCI  29
DUBOIS         FLURRIES  30  28  93 SE8       30.29R WCI  23
LANDER         CLOUDY    34  30  85 S7        30.34R WCI  28
RIVERTON       CLOUDY    35  26  69 NE16G23   30.35R WCI  25
CASPER         CLOUDY    33  28  81 NE14      30.35R WCI  23
DOUGLAS        CLOUDY    35  29  78 N18G26    30.32R WCI  24

$$
WYZ021-027>030-104>119-240400-
SOUTHERN WYOMING

CITY           SKY/WX    TMP DP  RH WIND       PRES   REMARKS
EVANSTON       FAIR      42  20  41 N10       30.24R
KEMMERER       FAIR      36  23  60 NW8       30.25R WCI  29
FORT BRIDGER   FAIR      41  18  38 NW6       30.27R
ROCK SPRINGS   FAIR      35  25  66 NE23G32   30.26R WCI  23
DIXON          FAIR      47  31  54 NE15      30.21R
RAWLINS        MOCLDY    36  29  75 NE13      30.26R WCI  27
SARATOGA       FAIR      36  32  87 NW14G20   30.24R WCI  27
LARAMIE        FAIR      37  33  85 NW21G31   30.21R WCI  26
CHEYENNE       CLOUDY    36  34  92 MISG      30.21R
TORRINGTON     FAIR      39  35  86 N22G32    30.22R WCI  29
PINE BLUFFS    CLOUDY    39  37  93 N20G36    30.21R WCI  30

$$




USA.gov is the U.S. government's official web portal to all federal, state and local government web resources and services.